Overview Statistics Trail Chart Weather Telemetry Raw packets
 

This is the latest recevied weather packets stored in our database for station/object K6POO-1. If no packets are shown the sender has not sent any weather packets the latest 10 day(s).

<< 32 33 34 35 36 37 38 >>
Time Temp. Humidity Pressure Rain* Wind** Luminosity Snow
1788467836 21.67° C 68% 1013.9 hPa 0 mm - 454 W/m² -
1788467532 21.67° C 69% 1014 hPa 0 mm - 573 W/m² -
1788467226 21.67° C 69% 1013.9 hPa 0 mm - 454 W/m² -
1788466922 21.67° C 69% 1014 hPa 0 mm - 315 W/m² -
1788466621 21.67° C 69% 1013.9 hPa 0 mm - 323 W/m² -
1788466316 21.67° C 69% 1014.1 hPa 0 mm - 399 W/m² -
1788466010 21.67° C 69% 1014.2 hPa 0 mm - 409 W/m² -
1788465706 22.22° C 68% 1013.9 hPa 0 mm - 566 W/m² -
1788465402 21.67° C 70% 1014 hPa 0 mm - 584 W/m² -
1788465097 21.67° C 69% 1014.2 hPa 0 mm - 422 W/m² -
1788464797 21.11° C 70% 1014 hPa 0 mm - 472 W/m² -
1788464492 21.67° C 70% 1014.1 hPa 0 mm - 314 W/m² -
1788464188 21.11° C 71% 1014.3 hPa 0 mm - 460 W/m² -
1788463883 21.67° C 69% 1014.4 hPa 0 mm - 571 W/m² -
1788463580 21.67° C 68% 1014.4 hPa 0 mm - 653 W/m² -
1788463280 21.67° C 69% 1014.6 hPa 0 mm - 548 W/m² -
1788462977 21.67° C 70% 1014.7 hPa 0 mm - 298 W/m² -
1788462677 21.67° C 70% 1014.5 hPa 0 mm - 358 W/m² -
1788462376 21.67° C 69% 1014.8 hPa 0 mm - 369 W/m² -
1788462076 21.11° C 70% 1014.6 hPa 0 mm - 346 W/m² -
1788461772 21.11° C 69% 1014.7 hPa 0 mm - 329 W/m² -
1788461467 21.11° C 70% 1014.9 hPa 0 mm - 336 W/m² -
1788461163 20.56° C 71% 1014.9 hPa 0 mm - 365 W/m² -
1788460858 20.56° C 70% 1015 hPa 0 mm - 296 W/m² -
1788460557 20.56° C 70% 1014.9 hPa 0 mm - 255 W/m² -

* Rain latest hour (hover to see other rain measurements)
** Current wind speed in m/s (hover to see current wind gust speed)